Regional Weather Roundup
Issued by NWS

Home | Current Version | Previous Version | Text Only | Print | Product List | Glossary Off
Versions: 1 2 3 4 5 6 7 8 9 10 11 12 13 14 15 16 17 18 19 20 21 22 23 24 25 26 27 28 29 30 31 32 33 34 35 36 37 38 39 40 41 42 43 44 45 46 47 48 49 50

000
ASUS43 KMKX 230200
RWRWI

WISCONSIN REGIONAL WEATHER ROUNDUP
NATIONAL WEATHER SERVICE MILWAUKEE/SULLIVAN WI
800 PM CST SAT NOV 22 2014

NOTE: "FAIR" INDICATES FEW OR NO CLOUDS BELOW 12,000 FEET WITH NO
SIGNIFICANT WEATHER AND/OR OBSTRUCTIONS TO VISIBILITY.

WIZ001-002-006>008-014>016-023>028-230300-
NORTHWEST WISCONSIN

CITY           SKY/WX    TMP DP  RH WIND       PRES   REMARKS
SUPERIOR ARPT  CLOUDY    35  32  90 SE3       29.62F
ASHLAND        CLOUDY    35  31  85 CALM      29.65S
HAYWARD        CLOUDY    34  32  92 S9        29.64S FOG     WCI  27
SIREN          CLOUDY    34  33  97 S10       29.62F FOG     WCI  26
CUMBERLAND     CLOUDY    32  32 100 S10       29.64S FOG     WCI  24
RICE LAKE      CLOUDY    35  34  96 SE9       29.67S FOG     WCI  27
CHETEK         CLOUDY    35  34  98 SE7       29.67S FOG     WCI  29
LADYSMITH      CLOUDY    36  35  96 S7        29.70R FOG     WCI  30
EAU CLAIRE     CLOUDY    36  34  92 SE8       29.67F FOG     WCI  30
MENOMONIE      FOG       35  35  99 E6        29.66F VSB 1/2 WCI  30
NEW RICHMOND   CLOUDY    35  35 100 SE7       29.63F FOG     WCI  29
OSCEOLA        CLOUDY    36  36 100 SE8       29.64F FOG     WCI  29
$$

WIZ003>005-009-010-017-018-230300-
NORTH CENTRAL WISCONSIN

CITY           SKY/WX    TMP DP  RH WIND       PRES   REMARKS
MANITOWISH WTR CLOUDY    32  32 100 S10       29.65F FOG     WCI  24
ARBOR VITAE    CLOUDY    34  32  94 S7        29.67F FOG     WCI  28
WOODRUFF       CLOUDY    34  32  94 S7        29.67F FOG     WCI  28
RHINELANDER    FOG       33  33 100 S7        29.69S VSB 1   WCI  27
EAGLE RIVER    CLOUDY    32  32  99 CALM      29.67S FOG
LAND O LAKES   CLOUDY    32  32  98 S6        29.67F FOG     WCI  27
PHILLIPS       CLOUDY    33  33 100 S6        29.66F FOG     WCI  27
TOMAHAWK       CLOUDY    33  32  96 CALM      29.69S FOG
MEDFORD        FOG       34  34 100 S7        29.70R VSB 1   WCI  28
MERRILL        FOG       34  34 100 S5        29.71S VSB 1   WCI  30
$$

WIZ029-030-035-036-043>047-230300-
CENTRAL WISCONSIN

CITY           SKY/WX    TMP DP  RH WIND       PRES   REMARKS
WAUSAU         FOG       35  35 100 S7        29.72S VSB 3/4 WCI  29
MOSINEE        NOT AVBL
MARSHFIELD     FOG       36  36 100 S5        29.71S VSB 1/4 WCI  32
STEVENS POINT  FOG       35  35 100 S5        29.75S VSB 1   WCI  31
WAUPACA        CLOUDY    40  38  93 CALM      29.76F FOG
WAUTOMA        FOG       39  39 100 CALM      29.76S VSB 3/4
WISC RAPIDS    FOG       37  35  92 S3        29.74F VSB 1/2
CAMP DOUGLAS   FOG       39  39 100 E6        29.73R VSB 3/4 WCI  35
$$

WIZ011>013-019>022-031-037>040-048>050-230300-
NORTHEAST WISCONSIN

CITY           SKY/WX    TMP DP  RH WIND       PRES   REMARKS
ANTIGO         FOG       33  33 100 S9        29.72R VSB 1/2 WCI  25
SHAWANO        FOG       38  37  93 CALM      29.77S VSB 1/2
OCONTO         CLOUDY    37  37 100 SW6       29.78R WCI  32
STURGEON BAY   CLOUDY    37  36  93 SW10      29.78R VSB 1/2 WCI  30
GREEN BAY      CLOUDY    38  38 100 S5        29.77F FOG     WCI  34
MANITOWOC      CLOUDY    43  41  93 S5        29.80F
APPLETON       FOG       37  37 100 S5        29.77F VSB 1   WCI  34
CLINTONVILLE   FOG       36  36 100 S3        29.77S VSB 1
OSHKOSH        CLOUDY    41  39  93 S5        29.77F FOG
$$

WIZ032>034-041-042-053>061-230300-
SOUTHWEST WISCONSIN

CITY           SKY/WX    TMP DP  RH WIND       PRES   REMARKS
LA CROSSE      CLOUDY    40  38  93 SE6       29.69F FOG
SPARTA         CLOUDY    38  38 100 E5        29.72F FOG     WCI  34
VIROQUA        CLOUDY    43  43 100 S14       29.71S
BOSCOBEL       CLOUDY    42  39  89 CALM      29.73S FOG
PRAIRIE DU CHI CLOUDY    49  47  90 CALM      29.72S
PLATTEVILLE    CLOUDY    48  47  97 S13       29.76F
$$

WIZ056-057-062-063-064-067-068-230300-
SOUTH CENTRAL WISCONSIN

CITY           SKY/WX    TMP DP  RH WIND       PRES   REMARKS
REEDSBURG      CLOUDY    43  42  96 CALM      29.74R
BARABOO/DELLS  CLOUDY    44  42  94 S7        29.74S FOG
LONE ROCK      NOT AVBL
MINERAL POINT  CLOUDY    46  46 100 S12       29.75F FOG
MADISON        CLOUDY    46  44  93 S8        29.76F FOG
MIDDLETON      CLOUDY    48  47  98 S7        29.76F
WATERTOWN      CLOUDY    44  44 100 SE3       29.79S FOG
MONROE         CLOUDY    46  46 100 S14       29.78S
JANESVILLE     MOCLDY    48  46  93 S8        29.79F
$$

WIZ051-052-058>065-066-070>072-230300-
SOUTHEAST WISCONSIN

CITY           SKY/WX    TMP DP  RH WIND       PRES   REMARKS
MILWAUKEE      PTCLDY    45  41  86 S6        29.81F FOG
WAUKESHA       NOT AVBL
MILWAUKEE/TIMM MOCLDY    45  43  93 S6        29.81F FOG
RACINE         CLEAR     47  43  86 SW9       29.83F
BURLINGTON     MOCLDY    44  43  97 S7        29.82S
KENOSHA        MOCLDY    49  46  90 S10       29.82F
FOND DU LAC    CLOUDY    42  39  89 S7        29.77F
SHEBOYGAN      CLOUDY    43  41  93 S6        29.80F
WEST BEND      CLOUDY    45  41  87 S3        29.80S FOG
JUNEAU         FOG       44  43  98 S7        29.80R VSB 1/2
$$

LSZ147-162-230300-
LAKE SUPERIOR

STATION/POSITION TIME  TEMP    WIND        PRES    WAVE
                       AIR SEA DIR/SP/G            HT/PER
                 (UTC) (F)     (DEG/KT/KT) (MB)    (FT/S)
DEVILS ISLAND    0100   36     150/  4/  5 1004.3F
PORT WING        0100   35     210/  5/ 24 1004.4R
SAXON HARBOR     0120   34      CALM  / 20 1004.1F
$$

LMZ867-665-643>646-230300-
LAKE MICHIGAN

STATION/POSITION TIME  TEMP    WIND        PRES    WAVE
                       AIR SEA DIR/SP/G            HT/PER
                 (UTC) (F)     (DEG/KT/KT) (MB)    (FT/S)
CHAMBERS ISLAND  0100   38     190/  5/  9 1008.1S
N MID LAKE BUOY  0050   40 42  250/ 16/ 17 1008.6R   5/ 7
NORTHPORT PIER   0100   38     170/  1/  4 1008.1S
SISTER BAY       0128          220/  7/  8   N/A
KEWAUNEE LAKESHO 0100   40     200/  7/  8 1007.9F
SHEBOYGAN LAKESH 0100   44 36  190/  3/  3 1010.1S
PORT WASHINGTON  0100   45     190/  2/  3 1010.2
ATWATER BUOY     0100   47      CALM  /  2 1010.6R
MILWAUKEE LAKESH 0100   47     210/  7/  9   N/A
S MID LAKE BUOY  0050   46 42  190/ 16/ 17 1011.0R   3/ 5
KENOSHA   LAKESH 0100   49     200/  7/  9 1010.2S
$$

TC  - TEMPERATURE IN CELSIUS
VSB - VISIBILITY IN STATUTE MILES
WCI - WIND CHILL INDEX
HX  - HEAT INDEX



USA.gov is the U.S. government's official web portal to all federal, state and local government web resources and services.